Time,TemperatureF,DewpointF,PressureIn,WindDirection,WindDirectionDegrees,WindSpeedMPH,WindSpeedGustMPH,Humidity,HourlyPrecipIn,Conditions,Clouds,dailyrainin,SoftwareType,DateUTC
2013-04-22 05:05:00,32.5,29.9,30.33,East,85,3.0,11.0,90,0.00,,,0.00,Wunderground v.1.15,2013-04-22 09:05:00,
2013-04-22 05:10:00,32.4,29.8,30.33,ESE,115,3.0,11.0,90,0.00,,,0.00,Wunderground v.1.15,2013-04-22 09:10:00,
2013-04-22 05:15:00,32.4,30.1,30.33,East,79,3.0,3.0,91,0.00,,,0.00,Wunderground v.1.15,2013-04-22 09:15:00,
2013-04-22 05:20:00,32.4,30.1,30.33,ESE,107,3.0,10.0,91,0.00,,,0.00,Wunderground v.1.15,2013-04-22 09:20:00,
2013-04-22 05:30:00,32.3,30.0,30.33,East,91,3.0,10.0,91,0.00,,,0.00,Wunderground v.1.15,2013-04-22 09:30:00,
2013-04-22 05:35:00,32.2,29.9,30.33,ESE,118,3.0,3.0,91,0.00,,,0.00,Wunderground v.1.15,2013-04-22 09:35:00,
2013-04-22 05:40:00,32.1,29.8,30.33,ENE,70,2.0,10.0,91,0.00,,,0.00,Wunderground v.1.15,2013-04-22 09:40:00,
2013-04-22 05:50:00,31.9,29.6,30.33,ENE,71,2.0,10.0,91,0.00,,,0.00,Wunderground v.1.15,2013-04-22 09:50:00,
2013-04-22 06:00:00,31.9,29.8,30.33,ESE,110,3.0,10.0,92,0.00,,,0.00,Wunderground v.1.15,2013-04-22 10:00:00,
2013-04-22 06:10:00,31.7,29.6,30.33,ESE,106,2.0,2.0,92,0.00,,,0.00,Wunderground v.1.15,2013-04-22 10:10:00,
2013-04-22 06:20:00,31.4,29.3,30.33,East,81,2.0,2.0,92,0.00,,,0.00,Wunderground v.1.15,2013-04-22 10:20:00,
2013-04-22 06:30:00,31.6,29.5,30.33,ENE,65,3.0,3.0,92,0.00,,,0.00,Wunderground v.1.15,2013-04-22 10:30:00,
2013-04-22 06:40:00,31.6,29.3,30.34,ESE,110,2.0,2.0,91,0.00,,,0.00,Wunderground v.1.15,2013-04-22 10:40:00,
2013-04-22 06:50:00,31.6,29.3,30.34,SE,131,2.0,2.0,91,0.00,,,0.00,Wunderground v.1.15,2013-04-22 10:50:00,
2013-04-22 07:00:00,31.4,29.1,30.34,ESE,113,1.0,1.0,91,0.00,,,0.00,Wunderground v.1.15,2013-04-22 11:00:00,
2013-04-22 07:10:00,31.7,29.4,30.35,ESE,108,1.0,7.0,91,0.00,,,0.00,Wunderground v.1.15,2013-04-22 11:10:00,
2013-04-22 07:20:00,32.6,30.3,30.35,SE,124,1.0,7.0,91,0.00,,,0.00,Wunderground v.1.15,2013-04-22 11:20:00,
2013-04-22 07:30:00,33.5,30.9,30.35,East,101,2.0,7.0,90,0.00,,,0.00,Wunderground v.1.15,2013-04-22 11:30:00,
2013-04-22 07:40:00,34.1,30.9,30.35,East,86,3.0,7.0,88,0.00,,,0.00,Wunderground v.1.15,2013-04-22 11:40:00,
2013-04-22 07:50:00,34.9,31.7,30.35,ESE,122,3.0,3.0,88,0.00,,,0.00,Wunderground v.1.15,2013-04-22 11:50:00,
2013-04-22 08:00:00,35.6,31.5,30.35,SE,129,4.0,7.0,85,0.00,,,0.00,Wunderground v.1.15,2013-04-22 12:00:00,
2013-04-22 08:10:00,36.3,31.9,30.36,ENE,75,4.0,4.0,84,0.00,,,0.00,Wunderground v.1.15,2013-04-22 12:10:00,
2013-04-22 08:20:00,36.8,31.2,30.35,ESE,110,5.0,7.0,80,0.00,,,0.00,Wunderground v.1.15,2013-04-22 12:20:00,
2013-04-22 08:30:00,37.2,31.9,30.35,ESE,110,6.0,6.0,81,0.00,,,0.00,Wunderground v.1.15,2013-04-22 12:30:00,
2013-04-22 08:40:00,37.9,32.0,30.36,East,101,5.0,5.0,79,0.00,,,0.00,Wunderground v.1.15,2013-04-22 12:40:00,
2013-04-22 08:50:00,38.5,30.6,30.36,East,82,5.0,5.0,73,0.00,,,0.00,Wunderground v.1.15,2013-04-22 12:50:00,
2013-04-22 09:00:00,38.5,29.9,30.36,ESE,119,6.0,6.0,71,0.00,,,0.00,Wunderground v.1.15,2013-04-22 13:00:00,
2013-04-22 09:10:00,39.0,29.7,30.36,ENE,77,6.0,6.0,69,0.00,,,0.00,Wunderground v.1.15,2013-04-22 13:10:00,
2013-04-22 09:20:00,39.4,29.0,30.36,ESE,109,7.0,11.0,66,0.00,,,0.00,Wunderground v.1.15,2013-04-22 13:20:00,
2013-04-22 09:30:00,39.5,28.7,30.36,NE,46,6.0,6.0,65,0.00,,,0.00,Wunderground v.1.15,2013-04-22 13:30:00,
2013-04-22 09:40:00,40.1,29.3,30.35,ESE,110,6.0,9.0,65,0.00,,,0.00,Wunderground v.1.15,2013-04-22 13:40:00,
2013-04-22 09:50:00,40.0,28.4,30.35,NE,53,7.0,12.0,63,0.00,,,0.00,Wunderground v.1.15,2013-04-22 13:50:00,
2013-04-22 10:00:00,40.6,29.0,30.36,East,100,6.0,6.0,63,0.00,,,0.00,Wunderground v.1.15,2013-04-22 14:00:00,
2013-04-22 10:10:00,41.1,29.8,30.35,ENE,65,6.0,8.0,64,0.00,,,0.00,Wunderground v.1.15,2013-04-22 14:10:00,
2013-04-22 10:20:00,41.7,30.4,30.35,SE,124,6.0,8.0,64,0.00,,,0.00,Wunderground v.1.15,2013-04-22 14:20:00,
2013-04-22 10:30:00,42.3,30.2,30.35,ESE,108,5.0,8.0,62,0.00,,,0.00,Wunderground v.1.15,2013-04-22 14:30:00,
2013-04-22 10:40:00,42.9,30.4,30.36,SE,143,5.0,5.0,61,0.00,,,0.00,Wunderground v.1.15,2013-04-22 14:40:00,
2013-04-22 10:50:00,43.2,31.1,30.35,East,93,5.0,8.0,62,0.00,,,0.00,Wunderground v.1.15,2013-04-22 14:50:00,
2013-04-22 11:00:00,43.7,31.1,30.35,East,96,4.0,4.0,61,0.00,,,0.00,Wunderground v.1.15,2013-04-22 15:00:00,
2013-04-22 11:11:00,43.7,30.7,30.35,ENE,61,6.0,16.0,60,0.00,,,0.00,Wunderground v.1.15,2013-04-22 15:11:00,
2013-04-22 11:20:00,44.3,31.3,30.35,ESE,120,5.0,16.0,60,0.00,,,0.00,Wunderground v.1.15,2013-04-22 15:20:00,
2013-04-22 11:30:00,44.6,31.1,30.34,ESE,105,5.0,5.0,59,0.00,,,0.00,Wunderground v.1.15,2013-04-22 15:30:00,
2013-04-22 11:41:00,45.4,31.0,30.34,ESE,117,4.0,4.0,57,0.00,,,0.00,Wunderground v.1.15,2013-04-22 15:41:00,
2013-04-22 11:50:00,46.0,29.8,30.33,ESE,103,4.0,16.0,53,0.00,,,0.00,Wunderground v.1.15,2013-04-22 15:50:00,
2013-04-22 12:00:00,46.5,30.7,30.33,ESE,115,5.0,16.0,54,0.00,,,0.00,Wunderground v.1.15,2013-04-22 16:00:00,
2013-04-22 12:10:00,46.8,30.1,30.32,ENE,70,6.0,6.0,52,0.00,,,0.00,Wunderground v.1.15,2013-04-22 16:10:00,
2013-04-22 12:21:00,47.1,31.3,30.32,SE,127,6.0,6.0,54,0.00,,,0.00,Wunderground v.1.15,2013-04-22 16:21:00,
2013-04-22 12:30:00,47.4,31.1,30.31,East,84,6.0,6.0,53,0.00,,,0.00,Wunderground v.1.15,2013-04-22 16:30:00,
2013-04-22 12:40:00,48.7,30.9,30.31,ESE,110,5.0,5.0,50,0.00,,,0.00,Wunderground v.1.15,2013-04-22 16:40:00,
2013-04-22 12:50:00,49.1,31.2,30.31,East,84,5.0,5.0,50,0.00,,,0.00,Wunderground v.1.15,2013-04-22 16:50:00,
2013-04-22 13:01:00,49.4,30.0,30.30,ESE,113,4.0,6.0,47,0.00,,,0.00,Wunderground v.1.15,2013-04-22 17:01:00,
2013-04-22 13:10:00,50.3,31.8,30.30,East,94,4.0,13.0,49,0.00,,,0.00,Wunderground v.1.15,2013-04-22 17:10:00,
2013-04-22 14:25:00,52.2,32.6,30.27,ESE,113,4.0,13.0,47,0.00,,,0.00,Wunderground v.1.15,2013-04-22 18:25:00,
2013-04-22 14:30:00,52.6,31.3,30.27,East,84,4.0,13.0,44,0.00,,,0.00,Wunderground v.1.15,2013-04-22 18:30:00,
2013-04-22 14:40:00,53.0,32.2,30.26,SE,144,4.0,8.0,45,0.00,,,0.00,Wunderground v.1.15,2013-04-22 18:40:00,
2013-04-22 14:50:00,53.0,28.7,30.26,East,89,5.0,5.0,39,0.00,,,0.00,Wunderground v.1.15,2013-04-22 18:50:00,
2013-04-22 15:00:00,53.2,28.9,30.26,East,86,4.0,4.0,39,0.00,,,0.00,Wunderground v.1.15,2013-04-22 19:00:00,
2013-04-22 15:10:00,53.4,29.0,30.26,ESE,114,4.0,13.0,39,0.00,,,0.00,Wunderground v.1.15,2013-04-22 19:10:00,
2013-04-22 15:20:00,53.0,25.3,30.25,ESE,122,6.0,13.0,34,0.00,,,0.00,Wunderground v.1.15,2013-04-22 19:20:00,
2013-04-22 15:30:00,53.0,24.6,30.25,ENE,67,6.0,13.0,33,0.00,,,0.00,Wunderground v.1.15,2013-04-22 19:30:00,
2013-04-22 15:40:00,53.2,26.2,30.25,SE,124,5.0,5.0,35,0.00,,,0.00,Wunderground v.1.15,2013-04-22 19:40:00,
2013-04-22 15:50:00,53.6,26.6,30.24,ENE,63,4.0,13.0,35,0.00,,,0.00,Wunderground v.1.15,2013-04-22 19:50:00,
2013-04-22 16:00:00,53.2,25.5,30.24,SE,131,6.0,6.0,34,0.00,,,0.00,Wunderground v.1.15,2013-04-22 20:00:00,
2013-04-22 16:10:00,53.3,24.9,30.24,ENE,73,6.0,9.0,33,0.00,,,0.00,Wunderground v.1.15,2013-04-22 20:10:00,
2013-04-22 16:20:00,53.6,25.9,30.24,ESE,113,5.0,7.0,34,0.00,,,0.00,Wunderground v.1.15,2013-04-22 20:20:00,